Flag for Israel Weather past 2 weeks in Ramat Gan, Israel

Now
63 °F

Passing clouds.


Feels Like: 63 °F
Forecast: 59 / 70 °F
Wind: 5 mph from North

Location: Dov Airport

Current Time: Mar 30, 2015 at 1:33:32 AM

Latest Report: Mar 29, 2015 at 10:50 PM


Visibility: N/A

Pressure: 29.89 "Hg

Humidity: 83%

Dew point: 57 °F

Location of Ramat GanLocation

Historic Weather in Ramat Gan — Graph

°F

Ramat Gan temperature yesterday

Maximum temperature yesterday: 70 °F (at 2:50 PM)
Minimum temperature yesterday: 63 °F (at 4:50 AM)
Average temperature yesterday: 66 °F

Past Weeks' High & Low Weather Summary

 TemperatureHumidityPressure
High91 °F (Mar 27, 3:50 PM)94% (Mar 21, 4:01 PM)30.15 "Hg (Mar 21, 4:01 PM)
Low52 °F (Mar 18, 5:50 AM)16% (Mar 27, 3:50 PM)29.62 "Hg (Mar 28, 5:50 AM)
Average64 °F62%29.98 "Hg
* Reported Mar 14 9:50 PM — Mar 29 10:50 PM, Ramat Gan, Weather by CustomWeather, © 2015

Note: Actual official high and low records may vary slightly from our data, if they occured in-between our weather recording intervals... More about our weather records

Advertising

Ramat Gan weather history for previous 24 hours

 ConditionsComfort  
Time TempWeatherWind HumidityBarometerVisibility
10:50 PM
Sun, Mar 29
63 °FPassing clouds.5 mph83%29.89 "HgN/A
9:50 PM64 °FPassing clouds.8 mph78%29.89 "HgN/A
8:50 PM64 °FPassing clouds.13 mph83%29.86 "Hg5 mi
7:50 PM66 °FPartly sunny.12 mph83%29.83 "HgN/A
6:50 PM66 °FPassing clouds.7 mph83%29.83 "HgN/A
5:50 PM68 °FSunny.7 mph78%29.80 "Hg10 mi
4:50 PM68 °FSunny.7 mph83%29.77 "Hg10 mi
3:50 PM70 °FSunny.7 mph73%29.77 "Hg10 mi
2:50 PM70 °FSunny.9 mph73%29.77 "Hg10 mi
1:50 PM68 °FSunny.8 mph78%29.77 "Hg10 mi
12:50 PM68 °FSunny.7 mph83%29.77 "Hg10 mi
11:50 AM68 °FSunny.9 mph78%29.77 "Hg10 mi
10:50 AM68 °FSunny.7 mph64%29.77 "Hg10 mi
9:50 AM68 °FSunny.5 mph73%29.74 "Hg10 mi
8:50 AM68 °FSunny.7 mph69%29.74 "Hg10 mi
7:50 AM64 °FSunny.3 mph68%29.74 "Hg10 mi
6:50 AM63 °FPassing clouds.1 mph68%29.74 "HgN/A
5:50 AM66 °FPassing clouds.3 mph56%29.74 "HgN/A
4:50 AM63 °FPassing clouds.7 mph68%29.77 "HgN/A
Weather by CustomWeather, © 2015

See weather overviewHow to use our weather pages